EW0482 Weather Reports


time (UTC)temp
C
wind
direction
speed
KPH
gust
KPH
rain 1hr
cm
rain 24hr
cm
rain mn
cm
humidity
%
barometer
mb
20260507001535 19 261 1.6 17.7 0.00 0.00 0.00 69 1004.8
20260507000032 20 249 1.6 12.9 0.00 0.00 0.00 68 1004.7
20260506234524 20 178 0.0 9.7 0.00 0.00 0.00 67 1004.8
20260506233023 20 235 1.6 12.9 0.00 0.00 0.00 68 1004.8
20260506231522 20 234 1.6 14.5 0.00 0.00 0.00 67 1004.9
20260506230024 20 259 4.8 16.1 0.00 0.00 0.00 66 1004.9
20260506224519 20 175 1.6 11.3 0.00 0.00 0.00 65 1005.1
20260506223017 20 244 4.8 14.5 0.00 0.00 0.00 66 1005.4
20260506221515 20 227 1.6 12.9 0.00 0.00 0.00 66 1005.4
20260506220014 20 269 4.8 16.1 0.00 0.00 0.00 66 1005.7
20260506214513 20 210 0.0 12.9 0.00 0.00 0.00 66 1005.8
20260506213010 20 248 1.6 11.3 0.00 0.00 0.00 67 1006.0
20260506211509 20 234 1.6 11.3 0.00 0.00 0.00 68 1006.1
20260506210007 20 257 3.2 12.9 0.00 0.00 0.00 68 1006.2
20260506204514 20 254 3.2 11.3 0.00 0.00 0.00 66 1006.3
20260506203006 20 242 3.2 12.9 0.00 0.00 0.00 66 1006.4
20260506201509 21 241 1.6 12.9 0.00 0.00 0.00 67 1006.5
20260506200010 21 250 0.0 11.3 0.00 0.00 0.00 67 1006.7
20260506194505 20 252 1.6 11.3 0.00 0.00 0.00 67 1006.7
20260506193005 21 241 3.2 9.7 0.00 0.00 0.00 66 1006.9
20260506191504 21 245 0.0 12.9 0.00 0.00 0.00 65 1007.0
20260506190004 21 257 1.6 8.0 0.00 0.00 0.00 63 1007.1
20260506184502 22 166 0.0 3.2 0.00 0.00 0.00 63 1007.2
20260506183002 22 246 0.0 6.4 0.00 0.00 0.00 62 1007.2
20260506181608 21 217 0.0 4.8 0.00 0.00 0.00 61 1007.3
20260506180058 21 66 0.0 3.2 0.00 0.00 0.00 63 1007.3
20260506174555 20 77 0.0 6.4 0.00 0.00 0.00 63 1007.4
20260506173125 20 55 0.0 4.8 0.00 0.00 0.00 63 1007.4
20260506171558 20 134 0.0 4.8 0.00 0.00 0.00 64 1007.4
20260506170106 20 122 0.0 1.6 0.00 0.00 0.00 68 1007.3
20260506164549 19 107 0.0 1.6 0.00 0.00 0.00 68 1007.3
20260506163054 18 86 0.0 1.6 0.00 0.00 0.00 68 1007.4
20260506161546 18 85 0.0 1.6 0.00 0.00 0.00 71 1007.5
20260506160045 18 82 0.0 0.0 0.00 0.00 0.00 73 1007.5
20260506154600 17 111 0.0 3.2 0.00 0.00 0.00 74 1007.5
20260506153138 17 113 0.0 3.2 0.00 0.00 0.00 74 1007.5
20260506151534 16 148 0.0 1.6 0.00 0.00 0.00 75 1007.4
20260506150032 16 61 0.0 1.6 0.00 0.00 0.00 74 1007.5
20260506144527 15 61 0.0 3.2 0.00 0.00 0.00 74 1007.6
20260506143028 15 209 0.0 1.6 0.00 0.00 0.00 74 1007.5
20260506141522 15 255 0.0 0.0 0.00 0.00 0.00 72 1007.3
20260506140021 13 253 0.0 0.0 0.00 0.00 0.00 66 1007.2
20260506134516 12 253 0.0 0.0 0.00 0.00 0.00 53 1007.1
20260506133013 12 253 0.0 0.0 0.00 0.00 0.00 55 1007.1
20260506131514 12 253 0.0 0.0 0.00 0.00 0.00 57 1006.9
20260506130009 12 253 0.0 0.0 0.00 0.00 0.00 57 1006.7
20260506124508 12 252 0.0 0.0 0.00 0.00 0.00 55 1006.6
20260506123007 12 252 0.0 0.0 0.00 0.00 0.00 57 1006.5
20260506121506 12 252 0.0 0.0 0.00 0.00 0.00 58 1006.4
20260506120005 12 252 0.0 0.0 0.00 0.00 0.00 59 1006.3
20260506114504 12 252 0.0 0.0 0.00 0.00 0.00 60 1006.3
20260506113003 12 252 0.0 0.0 0.00 0.00 0.00 61 1006.2
20260506111503 12 252 0.0 0.0 0.00 0.00 0.00 62 1006.2
20260506110002 12 252 0.0 0.0 0.00 0.00 0.00 63 1006.2
20260506104500 12 252 0.0 0.0 0.00 0.00 0.00 63 1006.2
20260506103108 12 252 0.0 0.0 0.00 0.00 0.00 65 1006.2
20260506101559 12 252 0.0 0.0 0.00 0.00 0.00 66 1006.1
20260506100058 12 252 0.0 0.0 0.00 0.00 0.00 65 1006.2
20260506094557 12 252 0.0 0.0 0.00 0.00 0.00 67 1006.2
20260506093056 12 252 0.0 0.0 0.00 0.00 0.00 66 1006.2
20260506091556 12 252 0.0 0.0 0.00 0.00 0.00 66 1006.3
20260506090053 13 252 0.0 0.0 0.00 0.00 0.00 65 1006.4
20260506084552 13 252 0.0 0.0 0.00 0.00 0.00 65 1006.6
20260506083051 13 252 0.0 0.0 0.00 0.00 0.00 66 1006.5
20260506081649 13 252 0.0 0.0 0.00 0.00 0.00 66 1006.6
20260506073048 13 252 0.0 0.0 0.00 0.00 0.00 71 1006.7
20260506071544 13 252 0.0 0.0 0.00 0.00 0.00 73 1006.6
20260506061538 13 252 0.0 0.0 0.00 0.00 0.00 74 1006.1
20260506044534 15 252 0.0 0.0 0.00 0.00 0.00 75 1005.4
20260506043028 15 252 0.0 0.0 0.00 0.00 0.00 75 1005.1
20260506041527 15 252 0.0 0.0 0.00 0.00 0.00 75 1005.0
20260506040041 15 252 0.0 0.0 0.00 0.00 0.00 75 1004.9
20260506034524 16 252 0.0 0.0 0.00 0.00 0.00 75 1004.7
20260506033026 16 252 0.0 0.0 0.00 0.00 0.00 75 1004.5
20260506031520 16 252 0.0 0.0 0.00 0.00 0.00 74 1004.3
20260506030020 16 252 0.0 0.0 0.00 0.00 0.00 73 1004.1
20260506024527 16 252 0.0 1.6 0.00 0.00 0.00 71 1004.0
20260506023018 16 252 0.0 0.0 0.00 0.00 0.00 70 1003.6
20260506021535 17 252 0.0 0.0 0.00 0.00 0.00 68 1003.5
20260506020018 17 252 0.0 0.0 0.00 0.00 0.00 68 1003.5
20260506014522 16 252 0.0 0.0 0.00 0.00 0.00 68 1003.4
20260506013015 16 252 0.0 6.4 0.00 0.00 0.00 68 1003.4
20260506011522 17 255 0.0 4.8 0.00 0.00 0.00 68 1003.4
20260506010015 17 243 0.0 6.4 0.00 0.00 0.00 67 1003.4
20260506004513 17 286 0.0 4.8 0.00 0.00 0.00 66 1003.4
20260506003013 17 239 0.0 6.4 0.00 0.00 0.00 65 1003.2